www.pogodaiklimat.ru

Погода и климат >> Архив погоды >> Россия >> Магаданская область >> Мадаун


ПОГОДА в Мадауне

  • Прогноз погоды в Мадауне
  • Монитор погоды в Мадауне

АРХИВ ПОГОДЫ в Мадауне

Время (UTC), дата Ветер
(напр.,м/с)
 
Видим.   Явления Облачность Т
(С)
Тd
(С)
f
(%)
Тe
(С)
Тes
(С)
Комфортность P
(гПа)
Po
(гПа)
Тmin
(С)
Tmax
(С)
R
(мм)
R24
(мм)
S
(см)
03 10.06 ЮЗ 2 50 км 9/8 600 м
[Cb cap Ac trans]
+9.4 +4.5 71 +8 +10 1016.8 955.1
06 10.06 ЮЗ 2 н/о н/о +9.8 +4.4 69 +8 +8 1016.8 955.2
09 10.06 Ю 2 50 км 9/8 600 м
[Cb cap Ac trans]
+9.2 +4.1 70 +8 +8 1017.0 955.2 +11.0 0.2
12 10.06 Ю 1 н/о н/о +7.0 +3.9 81 +6 +6 1018.0 955.7
15 10.06 штиль 0 50 км 9/6 600 м
[Cb cap Ac trans]
+5.1 +3.1 87 +4 +4 1018.6 955.9
18 10.06 штиль 0 н/о н/о +3.5 +2.4 92 +2 +2 1019.2 956.1
21 10.06 СЗ 1 50 км 9/8 600 м
[Cb cap Ac trans]
+9.2 +3.5 67 +9 +10 1017.6 955.8 +2.3
00 11.06 С 1 н/о н/о +11.4 +2.5 54 +12 +12 1016.6 955.3
03 11.06 Ю 2 50 км 10/8 600 м
[Cb cap Ac trans]
+12.0 +2.0 50 +11 +12 1015.8 954.7
06 11.06 ЮЗ 3 н/о н/о +13.4 +2.5 48 +12 +12 1014.8 954.0
09 11.06 Ю 1 50 км 8/6 600 м
[Cb cap Ac trans]
+12.3 +2.6 52 +13 +13 1015.1 954.0 +13.8
12 11.06 В 1 н/о н/о +6.1 +4.2 88 +5 +5 1017.3 954.9
15 11.06 штиль 0 50 км 6/4 600 м
[Sc Ac trans]
+1.3 +0.5 94 0 0 1018.6 955.0
18 11.06 штиль 0 н/о н/о -0.6 -1.3 95 -2 -2 1019.3 955.2
21 11.06 З 1 50 км 8/5 600 м
[Cb cap Ac trans]
+6.5 +2.9 78 +6 +7 1017.9 955.5 -1.2
00 12.06 Ю 2 н/о н/о +12.2 +2.8 53 +12 +12 1015.5 954.4
03 12.06 Ю 2 50 км 8/8 600 м
[Cb cap]
+13.9 +1.7 44 +14 +16 1014.2 953.6
06 12.06 ЮЗ 2 н/о н/о +15.0 +0.3 37 +15 +15 1012.8 952.5
09 12.06 ЮЗ 1 50 км 8/5 600 м
[Sc Ac trans]
+12.7 +2.5 50 +13 +13 1013.9 953.1 +15.8
12 12.06 штиль 0 н/о н/о +6.1 +1.7 73 +5 +5 1016.3 953.9
15 12.06 штиль 0 50 км 6/4 600 м
[Sc Ac trans]
-0.7 -1.9 92 -2 -2 1018.6 954.5
18 12.06 СВ 1 н/о н/о -2.9 -3.6 95 -5 -5 1019.9 955.2
21 12.06 СЗ 1 50 км 3/3 1000 м
[Sc]
+7.4 +1.8 68 +7 +11 1017.1 955.0 -3.3
00 13.06 Ю 3 н/о н/о +12.5 +0.3 43 +11 +11 1015.8 954.7
03 13.06 ЮЗ 3 50 км 3/3 1000 м
[Cu hum]
+14.0 +0.1 39 +13 +21 1014.9 954.2
06 13.06 З 2 н/о н/о +15.3 +1.4 39 +15 +15 1014.2 953.8
09 13.06 ЮЗ 2 50 км 3/3 1000 м
[Sc]
+13.1 +2.1 47 +13 +13 1014.6 953.8 +15.3
12 13.06 СВ 1 н/о н/о +4.0 +1.0 81 +3 +3 1017.5 954.5
15 13.06 штиль 0 50 км ясно -2.3 -3.1 94 -4 -4 1020.0 955.4
18 13.06 штиль 0 н/о н/о -1.6 -2.3 95 -3 -3 1020.1 955.7
21 13.06 СЗ 1 50 км туман 3/0
[Ci fib]
+4.0 +2.6 91 +2 +8 1018.4 955.5 -3.9
00 14.06 ЮЗ 1 н/о н/о +13.8 +2.7 47 +14 +14 1014.7 954.0
03 14.06 ЮЗ 2 50 км 3/3 1000 м
[Cu hum]
+16.8 -2.7 26 +17 +27 1012.9 952.9
06 14.06 З 2 н/о н/о +17.6 -2.8 25 +18 +18 1012.5 952.7
09 14.06 ЮЗ 3 50 км 1/1 1000 м
[Sc]
+15.1 -0.7 34 +15 +15 1013.8 953.4 +17.9
12 14.06 штиль 0 н/о н/о +5.4 +0.8 72 +5 +5 1017.6 955.0
15 14.06 штиль 0 50 км 3/0
[Ci fib]
-2.0 -2.9 94 -3 -3 1020.4 955.9
18 14.06 штиль 0 н/о н/о -3.2 -4.0 94 -4 -4 1021.6 956.7
21 14.06 З 1 50 км 6/0
[Ci fib]
+6.8 +2.0 71 +6 +11 1019.2 956.8 -3.5
00 15.06 Ю 2 н/о н/о +15.0 +0.2 36 +15 +15 1016.6 956.0
03 15.06 ЮЗ 3 50 км 3/3 1000 м
[Cu hum]
+17.8 -1.5 27 +18 +26 1015.5 955.5
06 15.06 ЮЗ 4 н/о н/о +17.6 -4.2 22 +17 +17 1015.9 955.9
09 15.06 ЮЗ 1
{10}
50 км 1/0
[Ci fib]
+16.1 -2.9 27 +17 +18 1016.7 956.4 +18.7
12 15.06 В 1 н/о н/о +3.5 -1.5 70 +2 +2 1021.1 957.8
15 15.06 штиль 0 50 км 8/0
[Ci sp]
-2.6 -4.1 89 -4 -4 1022.9 958.1
18 15.06 штиль 0 н/о н/о -3.8 -4.9 92 -5 -5 1023.4 958.3
21 15.06 З 1 50 км 10/0
[Ci sp]
+7.7 -0.9 54 +7 +12 1019.4 957.1 -4.3
00 16.06 ЮВ 2 н/о н/о +16.0 -0.9 31 +16 +16 1015.8 955.5
03 16.06 В 4 50 км 10/3 1000 м
[Sc Ac trans Ci sp]
+15.2 +0.8 38 +14 +18 1014.8 954.3
06 16.06 ЮВ 1 н/о н/о +9.7 +5.9 77 +9 +9 1016.5 954.9
09 16.06 штиль 0 50 км в посл. час ливневой дождь 10/8 600 м
[Cb cap Ac trans]
+7.3 +6.1 92 +6 +6 1015.8 953.7 +16.1 2
12 16.06 штиль 0 н/о н/о +3.0 +2.1 94 +2 +2 1016.5 953.4
15 16.06 штиль 0 10 км слаб. ливневой дождь 9/8 600 м
[Cb cap Ac trans]
+2.9 +2.2 95 +2 +2 1015.8 952.7
18 16.06 ЮВ 1 н/о н/о +3.4 +2.6 94 +2 +2 1016.8 953.8
21 16.06 З 1 50 км 9/6 600 м
[Cb cap Ac trans]
+4.9 +2.1 82 +4 +5 1017.2 954.5 +1.3 0.6

 

Местоположение метеостанции Мадаун (Магаданская область, Россия): широта 60.60 долгота 150.70 высота над уровнем моря 522 м.

В архиве по умолчанию представлена погода в Мадауне за последнюю неделю. Архивные данные за месяц целиком и за предыдущие месяцы, начиная с января 2011 года, Вы можете получить, выбрав интересующий диапазон дат из раскрывающегося списка и нажав кнопку "Ввод!".


*Определитесь, кто Вы:
робот инопланетянин человек

Внимание! Время в таблицах - всемирное. Для получения местного времени необходимо прибавить поправку, которая равна 11 ч.

Смотрите также архив погоды в соседних городах и на ближайших метеорологических станциях:

Погода в Палатке (Магаданская область, Россия) (57 км)
Погода в Усть-Омчуге (Магаданская область, Россия) (83 км)
Погода в Талой (Магаданская область, Россия) (105 км)
Погода в Армани (Магаданская область, Россия) (110 км)
Погода в Магадане (Магаданская область, Россия) (117 км)
Погода в Оле (Магаданская область, Россия) (119 км)
Погода в Нагаева (Магаданская область, Россия) (120 км)
Погода в Талоне (Магаданская область, Россия) (149 км)
Погода в Усть-Бохапче (Магаданская область, Россия) (167 км)
Погода на Озере Джека Лондона (Магаданская область, Россия) (177 км)

Пояснения к столбцам:

Ветер - указаны скорость ветра в м/с - средняя за 10 мин, порывы в срок и между сроками (в фигурных скобках) и направление, откуда дует ветер: С - северный, СВ - северо-восточный, В - восточный, ЮВ - юго-восточный, Ю - южный, ЮЗ - юго-западный, З - западный, СЗ - северо-западный.
Видимость - горизонтальная дальность видимости в метрах или километрах. При видимости от 1 до 10 км при отсутствии осадков обычно наблюдается дымка, при ухудшении видимости до 1 км и менее - туман. В сухую погоду видимость может ухудшаться дымом, пылью или мглою.
Явления - указаны атмосферные явления, наблюдавшиеся в срок или в последний час перед сроком; фигурными скобками обозначены явления, наблюдавшиеся между сроками (за 1-3 часа до срока); квадратными скобками обозначены град или гололедные отложения с указанием их диаметра в мм.
Облачность - указаны через наклонную черту общая и нижняя облачность в баллах и высота нижней границы облаков в метрах; квадратными скобками обозначены формы облаков: Ci - перистые, Cs - перисто-слоистые, Cc - перисто-кучевые, Ac - высококучевые, As - высокослоистые, Sc - слоисто-кучевые, Ns - слоисто-дождевые, Cu - кучевые, Cb - кучево-дождевые. Подробнее классификацию облаков см. в Атласе облаков (PDF).
T - Температура воздуха - температура, измеренная на высоте 2 м над землей.
Td - Температура точки росы - температура, при понижении до которой содержащийся в воздухе водяной пар достигнет насыщения.
f - Относительная влажность воздуха - влажноcть воздуха, измеренная на высоте 2 м над землей.
Te - Эффективная температура - температура, которую ощущает одетый по сезону человек в тени. Характеристика душности погоды. При расчете учитывается влияние влажности воздуха и скорости ветра на теплоощущения человека.
Tes - Эффективная температура на солнце - температура, которую ощущает человек, с поправкой на солнечный нагрев. Характеристика знойности погоды. Зависит от высоты солнца над горизонтом, облачности и скорости ветра. Ночью, в пасмурную погоду, а также при ветре 12 м/с и более поправка равна нулю.
P - Атмосферное давление - приведенное к уровню моря атмосферное давление.
Po - Атмосферное давление - измеренное на уровне метеостанции атмосферное давление.
Tmin - Минимальная температура - минимум температуры воздуха на высоте 2 м над землей.
Tmax - Максимальная температура - максимум температуры воздуха на высоте 2 м над землей.
R - Количество осадков - Количество выпавших осадков за период времени, мм. При наведении курсора мыши на число - период времени, за который выпало указанное количество осадков.
R24 - Количество осадков - Количество выпавших осадков за 24 часа, мм.
S - Снежный покров - Высота снежного покрова, см. При наведении курсора мыши на число - состояние снежного покрова и степень покрытия местности в баллах.